Home   Weather   Bietigheim-Bissingen   Past weeks

Flag for Germany Past Weather in Bietigheim-Bissingen, Baden-Württemberg, Germany — Yesterday and Last 2 Weeks

52 °F

Passing clouds.

Feels Like: 51 °F
Forecast: 38 / 58 °F
Wind: 5 mph from North

Location: Stuttgart-Echterdingen

Current Time: Oct 27, 2016 at 7:04:46 PM

Latest Report: Oct 27, 2016 at 6:20 PM

Visibility: N/A

Pressure: 30.51 "Hg

Humidity: 77%

Dew Point: 45 °F

Location of Bietigheim-BissingenLocation

Past Weather in Bietigheim-Bissingen — Graph


Bietigheim-Bissingen Temperature Yesterday

Maximum temperature yesterday: 57 °F (at 1:20 PM)
Minimum temperature yesterday: 46 °F (at 11:50 PM)
Average temperature yesterday: 52 °F

High & Low Weather Summary for the Past Weeks

High68 °F (Oct 16, 3:50 PM)100% (Oct 14, 3:20 AM)30.54 "Hg (Oct 14, 3:20 AM)
Low32 °F (Oct 23, 6:20 AM)53% (Oct 16, 4:50 PM)29.65 "Hg (Oct 14, 5:50 PM)
Average49 °F86%30.05 "Hg
* Reported Oct 12 5:20 PM — Oct 27 5:50 PM, Bietigheim-Bissingen, Weather by CustomWeather, © 2016

Note: Actual official high and low records may vary slightly from our data, if they occured in-between our weather recording intervals... More about our weather records


Bietigheim-Bissingen Weather History for the Previous 24 Hours

Scroll right to see more
Time TempWeatherWind HumidityBarometerVisibility
5:50 PM
Thu, Oct 27
54 °FPassing clouds.3 mph72%30.51 "HgN/A
5:20 PM54 °FPassing clouds.3 mph72%30.51 "HgN/A
4:50 PM57 °FPassing clouds.1 mph63%30.51 "HgN/A
4:20 PM57 °FPassing clouds.3 mph59%30.51 "HgN/A
3:50 PM57 °FPassing clouds.2 mph59%30.51 "HgN/A
3:20 PM57 °FPassing clouds.2 mph63%30.51 "HgN/A
2:50 PM55 °FPassing clouds.2 mph67%30.51 "HgN/A
2:20 PM55 °FPassing clouds.1 mph67%30.51 "HgN/A
1:50 PM54 °FPassing clouds.3 mph72%30.54 "HgN/A
1:20 PM52 °FPassing clouds.2 mph77%30.54 "HgN/A
12:50 PM52 °FScattered clouds.3 mph77%30.54 "HgN/A
12:20 PM52 °FScattered clouds.3 mph77%30.54 "HgN/A
11:50 AM52 °FPartly sunny.6 mph82%30.54 "HgN/A
11:20 AM52 °FScattered clouds.5 mph77%30.54 "HgN/A
10:50 AM50 °FPassing clouds.2 mph82%30.54 "HgN/A
10:20 AM48 °FScattered clouds.2 mph87%30.54 "HgN/A
9:50 AM46 °FPartly sunny.2 mph87%30.54 "HgN/A
9:20 AM45 °FPartly sunny.3 mph93%30.51 "HgN/A
8:50 AM45 °FPartly sunny.5 mph87%30.51 "HgN/A
8:20 AM43 °FPartly sunny.2 mph93%30.48 "HgN/A
7:50 AM43 °FPassing clouds.1 mph93%30.48 "HgN/A
7:20 AM43 °FPassing clouds.5 mph93%30.48 "HgN/A
6:50 AM43 °FPassing clouds.3 mph93%30.48 "HgN/A
6:20 AM43 °FPassing clouds.6 mph93%30.48 "HgN/A
5:50 AM41 °FPassing clouds.3 mph93%30.45 "HgN/A
5:20 AM43 °FPassing clouds.2 mph93%30.45 "HgN/A
4:50 AM45 °FPassing clouds.5 mph93%30.45 "HgN/A
4:20 AM45 °FPassing clouds.3 mph93%30.45 "HgN/A
3:50 AM43 °FPassing clouds.3 mph93%30.45 "HgN/A
3:20 AM45 °FPassing clouds.2 mph87%30.45 "HgN/A
2:50 AM46 °FPassing clouds.3 mph87%30.45 "HgN/A
2:20 AM46 °FPassing clouds.2 mph87%30.45 "HgN/A
1:50 AM46 °FPassing clouds.2 mph93%30.45 "HgN/A
1:20 AM46 °FPassing clouds.6 mph93%30.45 "HgN/A
12:50 AM45 °FPassing clouds.7 mph93%30.45 "HgN/A
12:20 AM45 °FPassing clouds.5 mph93%30.42 "HgN/A
11:50 PM
Wed, Oct 26
46 °FPassing clouds.2 mph87%30.42 "HgN/A
11:20 PM48 °FPassing clouds.6 mph87%30.42 "HgN/A
10:50 PM48 °FPassing clouds.5 mph87%30.42 "HgN/A
10:20 PM48 °FPassing clouds.3 mph94%30.42 "HgN/A
9:50 PM48 °FPassing clouds.7 mph87%30.42 "HgN/A
9:20 PM50 °FPassing clouds.6 mph82%30.39 "HgN/A
8:50 PM50 °FPassing clouds.2 mph82%30.39 "HgN/A
8:20 PM52 °FPassing clouds.6 mph82%30.39 "HgN/A
7:50 PM52 °FPassing clouds.5 mph82%30.39 "HgN/A
7:20 PM52 °FPassing clouds.3 mph82%30.36 "HgN/A
Weather by CustomWeather, © 2016

See weather overviewHow to use our weather pages